TimeCDT,TemperatureF,Dew PointF,Humidity,Sea Level PressureIn,VisibilityMPH,Wind Direction,Wind SpeedMPH,Gust SpeedMPH,PrecipitationIn,Events,Conditions,WindDirDegrees,DateUTC
12:53 AM,52.0,46.0,80,30.13,10.0,North,4.6,-,N/A,,Clear,350,2012-10-08 05:53:00
1:53 AM,51.1,46.0,83,30.12,10.0,Calm,Calm,-,N/A,,Clear,0,2012-10-08 06:53:00
2:53 AM,51.1,46.0,83,30.10,10.0,NNW,3.5,-,N/A,,Clear,340,2012-10-08 07:53:00
3:53 AM,51.1,46.0,83,30.10,10.0,NNW,4.6,-,N/A,,Clear,340,2012-10-08 08:53:00
4:53 AM,50.0,46.0,86,30.11,10.0,Calm,Calm,-,N/A,,Partly Cloudy,0,2012-10-08 09:53:00
5:53 AM,51.1,45.0,80,30.14,10.0,NNW,6.9,-,N/A,,Scattered Clouds,340,2012-10-08 10:53:00
6:53 AM,51.1,45.0,80,30.16,10.0,North,5.8,-,N/A,,Partly Cloudy,350,2012-10-08 11:53:00
7:53 AM,52.0,46.0,80,30.18,10.0,North,8.1,-,N/A,,Scattered Clouds,360,2012-10-08 12:53:00
8:53 AM,54.0,46.0,75,30.18,10.0,NNE,3.5,-,N/A,,Overcast,30,2012-10-08 13:53:00
11:53 AM,64.0,46.0,52,30.17,10.0,Variable,6.9,-,N/A,,Mostly Cloudy,0,2012-10-08 16:53:00
12:53 PM,66.0,50.0,56,30.15,10.0,NNW,8.1,-,N/A,,Overcast,330,2012-10-08 17:53:00
1:53 PM,66.9,48.9,52,30.13,10.0,NNW,11.5,17.3,N/A,,Clear,330,2012-10-08 18:53:00
2:53 PM,69.1,48.9,49,30.10,10.0,North,11.5,-,N/A,,Clear,350,2012-10-08 19:53:00
3:53 PM,70.0,48.9,47,30.10,10.0,North,8.1,-,N/A,,Clear,360,2012-10-08 20:53:00
4:53 PM,69.1,48.9,49,30.10,10.0,North,8.1,-,N/A,,Clear,10,2012-10-08 21:53:00
5:53 PM,66.9,50.0,54,30.10,10.0,North,5.8,-,N/A,,Clear,10,2012-10-08 22:53:00
6:53 PM,62.1,51.1,67,30.11,10.0,Calm,Calm,-,N/A,,Clear,0,2012-10-08 23:53:00
8:53 PM,57.9,51.1,78,30.14,10.0,North,3.5,-,N/A,,Clear,10,2012-10-09 01:53:00
9:53 PM,57.0,48.9,74,30.15,10.0,North,4.6,-,N/A,,Clear,360,2012-10-09 02:53:00
10:53 PM,55.0,48.9,80,30.15,10.0,Calm,Calm,-,N/A,,Clear,0,2012-10-09 03:53:00
11:53 PM,53.1,48.9,86,30.14,10.0,Calm,Calm,-,N/A,,Clear,0,2012-10-09 04:53:00